Location: Gollag?dem
(17.0207°N, 80.7261°E)
Time: 00:57:16
(UTC+00:00)

Cosmos 1709 Rocket - Pass Details

Date: 03 August 2024
Orbit: 948 x 1000 km, 82.9° (Epoch: 12 September)

Event Time Altitude Azimuth Distance (km) Brightness Sun altitude
Rises 23:24:12 0° 358° (N) 3,639 7.3 -12.9°
Reaches altitude 10° 23:26:42 10° 360° (N) 2,699 6.6 -12.3°
Maximum altitude 23:32:53 78° 86° (E) 997 4.2 -10.9°
Drops below altitude 10° 23:39:08 10° 172° (S) 2,731 6.2 -9.5°
Sets 23:41:40 0° 173° (S) 3,685 6.9 -9.0°
